Overview Statistics Trail Chart Weather Telemetry Raw packets
 

This is the latest recevied weather packets stored in our database for station/object 4S6DRJ-13. If no packets are shown the sender has not sent any weather packets the latest 10 day(s).

<< 392 393 394 395 396 397 398 >>
Time Temp. Humidity Pressure Rain* Wind** Luminosity Snow
1787870246 27.78° C 86% 1008.6 hPa 0 mm 1.34 m/s, 222° 0 W/m² -
1787870184 27.78° C 86% 1008.5 hPa 0 mm 1.79 m/s, 289° 0 W/m² -
1787870123 27.78° C 86% 1008.6 hPa 0 mm 0.89 m/s, 258° 0 W/m² -
1787870062 27.78° C 86% 1008.6 hPa 0 mm 1.34 m/s, 252° 0 W/m² -
1787870001 27.78° C 86% 1008.5 hPa 0 mm 0.45 m/s, 227° 0 W/m² -
1787869940 27.78° C 86% 1008.6 hPa 0 mm 1.79 m/s, 111° 0 W/m² -
1787869879 27.78° C 86% 1008.4 hPa 0 mm 0.45 m/s, 201° 0 W/m² -
1787869818 27.78° C 86% 1008.7 hPa 0 mm 1.34 m/s, 247° 0 W/m² -
1787869757 27.78° C 86% 1008.5 hPa 0 mm 0.89 m/s, 218° 0 W/m² -
1787869696 27.78° C 86% 1008.5 hPa 0 mm 0.89 m/s, 182° 0 W/m² -
1787869635 27.78° C 86% 1008.6 hPa 0 mm 0.89 m/s, 262° 0 W/m² -
1787869574 27.78° C 86% 1008.7 hPa 0 mm 1.79 m/s, 273° 0 W/m² -
1787869513 27.78° C 86% 1008.5 hPa 0 mm 0.45 m/s, 221° 0 W/m² -
1787869451 27.78° C 86% 1008.6 hPa 0 mm 1.79 m/s, 202° 0 W/m² -
1787869391 27.78° C 86% 1008.7 hPa 0 mm 0.45 m/s, 268° 0 W/m² -
1787869330 27.78° C 86% 1008.8 hPa 0 mm 0.45 m/s, 238° 0 W/m² -
1787869269 27.78° C 86% 1008.7 hPa 0 mm 1.34 m/s, 217° 0 W/m² -
1787869208 27.78° C 86% 1008.6 hPa 0 mm 1.79 m/s, 316° 0 W/m² -
1787869147 27.78° C 86% 1008.6 hPa 0 mm 1.34 m/s, 206° 0 W/m² -
1787869086 27.78° C 86% 1008.7 hPa 0 mm 0.89 m/s, 243° 0 W/m² -
1787869025 27.78° C 86% 1008.8 hPa 0 mm 1.79 m/s, 196° 0 W/m² -
1787868964 27.78° C 87% 1008.7 hPa 0 mm 1.79 m/s, 223° 0 W/m² -
1787868903 27.78° C 87% 1008.7 hPa 0 mm 0.89 m/s, 235° 0 W/m² -
1787868842 27.78° C 87% 1008.5 hPa 0 mm 0.89 m/s, 208° 0 W/m² -
1787868781 27.78° C 87% 1008.7 hPa 0 mm 1.79 m/s, 313° 0 W/m² -

* Rain latest hour (hover to see other rain measurements)
** Current wind speed in m/s (hover to see current wind gust speed)